Highgate, VT

8:09 PM EST on November 20, 2019 (GMT -0500)
Franklin County State

Weather History for KFSO - September, 2019

Change the Weather History Date:

Friday, September 6, 2019

  Actual Average (WUND) Record (WUND)
Temperature  
Mean Temperature 64 °F -  
Max Temperature 78 °F - - (-1)
Min Temperature 52 °F - - (-1)
Growing Degree Days 14 (Base 50)    
Moisture  
Dew Point 53 °F    
Average Humidity 73    
Maximum Humidity 96    
Minimum Humidity 39    
Precipitation  
Precipitation 0.00 in - - ()
Sea Level Pressure  
Sea Level Pressure 30.00 in    
Wind  
Wind Speed 2 mph (ESE)    
Max Wind Speed 12 mph    
Max Gust Speed -    
Visibility 10 miles    
Events      
Averages and records for this station are not official NWS values.
T = Trace of Precipitation, MM = Missing Value Source: NWS Daily Summary

Daily Weather History Graph

Daily Weather History Graph

Search for Another Location

Airport or City:

Astronomy

Sep. 06, 2019 Rise Set
Actual Time 6:20 AM EDT 7:20 PM EDT
Civil Twilight 5:50 AM EDT 7:50 PM EDT
Nautical Twilight 5:14 AM EDT 8:26 PM EDT
Astronomical Twilight 4:36 AM EDT 9:03 PM EDT
Moon 2:45 PM EDT (9/6) 11:59 PM EDT (9/6)
Length of Visible Light 14h 00m
Length of Day
13h 00m
First Quarter, 55% of the Moon is Illuminated
Sep 6
First Quarter
Sep 14
Full
Sep 21
Last Quarter
Sep 28
New
Oct 5
First Quarter

Hourly Weather History & Observations

Time (EDT) Temp. Dew Point Humidity Pressure Visibility Wind Dir Wind Speed Gust Speed Precip Events Conditions
12:15 AM 54.1 °F 52.9 °F 95% 30.08 in 10.0 mi Calm Calm - N/A   Clear
12:36 AM 54.7 °F 53.6 °F 96% 30.08 in 10.0 mi ESE 3.5 mph - N/A   Clear
12:56 AM 54.5 °F 53.2 °F 96% 30.08 in 10.0 mi ESE 3.5 mph - N/A   Clear
1:16 AM 54.7 °F 53.2 °F 95% 30.07 in 10.0 mi ESE 3.5 mph - N/A   Clear
1:35 AM 54.5 °F 52.9 °F 94% 30.07 in 10.0 mi ESE 3.5 mph - N/A   Clear
1:56 AM 54.1 °F 52.9 °F 95% 30.07 in 10.0 mi Calm Calm - N/A   Clear
2:15 AM 53.8 °F 52.3 °F 95% 30.07 in 10.0 mi Calm Calm - N/A   Clear
2:35 AM 53.6 °F 52.3 °F 95% 30.07 in 10.0 mi Calm Calm - N/A   Clear
2:55 AM 53.8 °F 52.3 °F 95% 30.07 in 10.0 mi SE 3.5 mph - N/A   Clear
3:16 AM 53.6 °F 52.2 °F 95% 30.06 in 10.0 mi Calm Calm - N/A   Clear
3:36 AM 52.7 °F 51.3 °F 95% 30.07 in 10.0 mi SE 3.5 mph - N/A   Clear
3:55 AM 52.7 °F 51.3 °F 95% 30.06 in 10.0 mi Calm Calm - N/A   Clear
4:15 AM 52.3 °F 51.1 °F 95% 30.06 in 10.0 mi SSE 3.5 mph - N/A   Clear
4:35 AM 52.5 °F 51.3 °F 95% 30.06 in 10.0 mi Calm Calm - N/A   Clear
4:56 AM 52.7 °F 51.4 °F 95% 30.06 in 10.0 mi SE 3.5 mph - N/A   Clear
5:16 AM 52.9 °F 51.8 °F 96% 30.06 in 10.0 mi Calm Calm - N/A   Clear
5:35 AM 52.7 °F 51.3 °F 95% 30.06 in 10.0 mi Calm Calm - N/A   Clear
5:55 AM 52.7 °F 51.4 °F 95% 30.07 in 10.0 mi SSE 3.5 mph - N/A   Clear
6:16 AM 52.7 °F 51.3 °F 95% 30.07 in 10.0 mi Calm Calm - N/A   Clear
6:36 AM 52.7 °F 51.4 °F 95% 30.07 in 10.0 mi Calm Calm - N/A   Mostly Cloudy
6:56 AM 53.1 °F 51.8 °F 95% 30.08 in 10.0 mi ESE 3.5 mph - N/A   Overcast
7:15 AM 53.2 °F 52.0 °F 95% 30.07 in 10.0 mi East 3.5 mph - N/A   Overcast
7:36 AM 54.0 °F 52.5 °F 95% 30.07 in 10.0 mi Calm Calm - N/A   Mostly Cloudy
7:55 AM 54.9 °F 52.2 °F 91% 30.07 in 10.0 mi Calm Calm - N/A   Scattered Clouds
8:15 AM 56.3 °F 53.2 °F 89% 30.07 in 10.0 mi East 3.5 mph - N/A   Mostly Cloudy
8:35 AM 57.2 °F 54.1 °F 89% 30.07 in 10.0 mi East 3.5 mph - N/A   Overcast
8:56 AM 57.2 °F 53.8 °F 88% 30.07 in 10.0 mi Calm Calm - N/A   Overcast
9:16 AM 60.1 °F 54.3 °F 81% 30.07 in 10.0 mi East 3.5 mph - N/A   Scattered Clouds
9:36 AM 63.5 °F 54.3 °F 72% 30.06 in 10.0 mi East 4.6 mph - N/A   Clear
9:55 AM 65.8 °F 52.5 °F 62% 30.06 in 10.0 mi East 5.8 mph - N/A   Clear
10:16 AM 67.1 °F 52.2 °F 59% 30.06 in 10.0 mi ENE 6.9 mph - N/A   Clear
10:36 AM 68.0 °F 51.4 °F 55% 30.05 in 10.0 mi NE 4.6 mph - N/A   Clear
10:55 AM 68.9 °F 52.2 °F 55% 30.04 in 10.0 mi NNE 5.8 mph - N/A   Clear
11:16 AM 70.5 °F 52.0 °F 52% 30.04 in 10.0 mi East 4.6 mph - N/A   Clear
11:36 AM 71.1 °F 53.2 °F 53% 30.03 in 10.0 mi ENE 5.8 mph - N/A   Clear
11:56 AM 71.8 °F 51.1 °F 48% 30.03 in 10.0 mi Calm Calm - N/A   Clear
12:16 PM 72.7 °F 50.4 °F 45% 30.02 in 10.0 mi East 3.5 mph - N/A   Clear
12:36 PM 73.9 °F 51.4 °F 45% 30.01 in 10.0 mi East 4.6 mph - N/A   Clear
12:55 PM 73.8 °F 51.3 °F 45% 30.00 in 10.0 mi Calm Calm - N/A   Clear
1:15 PM 74.7 °F 53.4 °F 47% 30.00 in 10.0 mi SSE 3.5 mph - N/A   Clear
1:35 PM 74.3 °F 54.0 °F 49% 29.99 in 10.0 mi Calm Calm - N/A   Clear
1:55 PM 75.7 °F 49.1 °F 39% 29.98 in 10.0 mi SE 4.6 mph - N/A   Clear
2:16 PM 75.4 °F 48.6 °F 39% 29.98 in 10.0 mi ESE 3.5 mph - N/A   Scattered Clouds
2:35 PM 75.9 °F 49.8 °F 40% 29.97 in 10.0 mi SSE 4.6 mph - N/A   Overcast
2:56 PM 75.6 °F 49.3 °F 39% 29.96 in 10.0 mi East 3.5 mph - N/A   Mostly Cloudy
3:15 PM 76.3 °F 50.7 °F 41% 29.96 in 10.0 mi ENE 3.5 mph - N/A   Mostly Cloudy
3:35 PM 76.5 °F 49.8 °F 39% 29.95 in 10.0 mi ENE 4.6 mph - N/A   Scattered Clouds
3:56 PM 77.4 °F 50.7 °F 39% 29.94 in 10.0 mi SE 11.5 mph - N/A   Scattered Clouds
4:16 PM 77.5 °F 51.6 °F 40% 29.92 in 10.0 mi SE 6.9 mph - N/A   Scattered Clouds
4:35 PM 77.0 °F 51.4 °F 41% 29.91 in 10.0 mi SE 4.6 mph - N/A   Scattered Clouds
4:56 PM 77.5 °F 51.8 °F 41% 29.91 in 10.0 mi East 5.8 mph - N/A   Scattered Clouds
5:15 PM 77.5 °F 51.3 °F 40% 29.91 in 10.0 mi ENE 5.8 mph - N/A   Mostly Cloudy
5:36 PM 77.4 °F 52.0 °F 41% 29.91 in 10.0 mi East 5.8 mph - N/A   Overcast
5:56 PM 76.1 °F 51.8 °F 43% 29.92 in 10.0 mi SSE 5.8 mph - N/A   Overcast
6:15 PM 73.8 °F 51.3 °F 45% 29.92 in 10.0 mi ESE 3.5 mph - N/A   Overcast
6:35 PM 70.7 °F 56.5 °F 61% 29.91 in 10.0 mi Calm Calm - N/A   Mostly Cloudy
6:55 PM 68.5 °F 57.7 °F 68% 29.91 in 7.0 mi Calm Calm - N/A   Scattered Clouds
7:16 PM 64.9 °F 58.6 °F 80% 29.91 in 10.0 mi Calm Calm - N/A   Clear
7:36 PM 64.4 °F 60.1 °F 86% 29.90 in 10.0 mi Calm Calm - N/A   Clear
7:55 PM 62.6 °F 59.7 °F 90% 29.90 in 10.0 mi Calm Calm - N/A   Clear
8:15 PM 61.2 °F 57.9 °F 89% 29.90 in 10.0 mi Calm Calm - N/A   Clear
8:35 PM 64.4 °F 57.6 °F 78% 29.90 in 10.0 mi ESE 3.5 mph - N/A   Mostly Cloudy
8:56 PM 64.2 °F 55.8 °F 74% 29.91 in 10.0 mi ESE 3.5 mph - N/A   Overcast
9:16 PM 64.4 °F 55.6 °F 73% 29.91 in 10.0 mi SE 3.5 mph - N/A   Overcast
9:35 PM 63.7 °F 55.4 °F 74% 29.90 in 10.0 mi Calm Calm - N/A   Overcast
9:56 PM 63.0 °F 55.4 °F 76% 29.90 in 10.0 mi SE 4.6 mph - N/A   Mostly Cloudy
10:15 PM 62.1 °F 55.0 °F 78% 29.90 in 10.0 mi Calm Calm - N/A   Scattered Clouds
10:36 PM 61.0 °F 55.4 °F 82% 29.90 in 10.0 mi SE 3.5 mph - N/A   Clear
10:55 PM 60.8 °F 55.8 °F 83% 29.90 in 10.0 mi SE 4.6 mph - N/A   Clear
11:15 PM 60.4 °F 55.8 °F 85% 29.90 in 10.0 mi SSE 3.5 mph - N/A   Clear
11:36 PM 59.5 °F 55.4 °F 86% 29.89 in 10.0 mi Calm Calm - N/A   Clear
11:56 PM 59.2 °F 55.6 °F 88% 29.88 in 10.0 mi Calm Calm - N/A   Clear